BLOCK DM R/B, 26769

Orbit data source: Space-Track

BLOCK DM R/B, 26769 is space debris in HEO originally from a launch on Tue, 15 May 2001 UTC launched from the Tyuratam Missile And Space Complex (TTMTR). Debris objects in space refer to the collection of defunct objects orbiting the Earth. Examples of debris include non-operational satellites, rocket bodies, and fragments generated from explosions, collisions, or faulty payload assembly.

Loading next visibility...
Identifier
26769, 2001-019D
Orbit
HEO
Country
Flag of CISCIS
Related business
Manufacturer
RKKE
Mission
Spacecraft
Bus & Motor
BLOK DM2, Unknown motor
Mass
2,560 kg wet, 2,560 kg dry
Launch date (UTC)
2001-05-15 (24 years ago)
Launch vehicle
Unknown
Launch site
Tyuratam Missile And Space Complex (TTMTR)
Object type
Payload
Rocket body
Debris
Shape & HBR
Cyl + 1 Nozzle, 3.1 m
Radar Cross Section
23.684 m², Large (>1 m²)

Expand to show TLE details & history
Last TLE update: 2 days ago

TLE from 2 days ago
0 BLOCK DM R/B
1 26769U 01019D   25257.05261845 -.00000217  00000-0  00000-0 0  9994
2 26769  18.3572  31.2838 5166096 309.6745 274.1096  1.86698913165989
Epoch: 2025-09-14T01:15Z
TLE epoch observation values (Epoch: 2025-09-14T01:15:46.234Z)
Latitude
2.98163°
Longitude
-169.95052°
Altitude
27,163.561 km
Speed
3.076 km/s
True Right ascension
13h 29m 04s
True Declination
2° 58' 40"
Sunlit
Object was in daylight at epoch
Visualization orbit readout
Latitude
Unknown
Longitude
Unknown
Altitude
Unknown
Speed
Unknown
Apparent Right ascension
Unknown
Apparent Declination
Unknown
Sunlit
N/A
Visualization observer readout
Local Sidereal Time
17:08:50
Azimuth
Unknown
Elevation
Unknown
Doppler factor
Unknown
Orbital elements
Apogee altitude
35,877.19 km
Perigee altitude
7,089.943 km
Semi-major axis
27,861.704 km
Eccentricity
0.51661
Inclination
18.3572°
RAAN
31.2838°
Arg. of periapsis
309.6745°
True anomaly
220.8979°
Mean anomaly
274.1096°
Eccentric anomaly
246.88611°
Mean motion
0.46669 °/min
Orbital period
771.38 mins
BSTAR
0
Loading maneuver chart data...
Computing Atmospheric mass density...
Loading historical data...
Loading historical data...
Loading historical data...
Loading historical data...
Loading historical data...
Loading historical data...
Loading historical data...
Other satellites on launch #19 in the year 2001 (2001-05-15 UTC)

Documentation

Showing up to 5 results
|